Regional Weather Roundup
Issued by NWS Goodland, KS

Home | Current Version | Previous Version | Text Only | Print | Product List | Glossary Off
Versions: 1 2 3 4 5 6 7 8 9 10 11 12 13 14 15 16 17 18 19 20 21 22 23 24 25 26 27 28 29 30 31 32 33 34 35 36 37 38 39 40 41 42 43 44 45 46 47 48 49 50

000
ASUS43 KGLD 190708
RWRGLD

GOODLAND FORECAST AREA HOURLY WEATHER ROUNDUP
NATIONAL WEATHER SERVICE GOODLAND KS
100 AM MDT SUN APR 19 2015

...OFFICIAL OBSERVATIONS...

CITY           SKY/WX    TMP DP  RH WIND       PRES   REMARKS
GOODLAND KS    MOCLDY    47  45  93 N13       29.80R
HILL CITY KS   CLOUDY    51  47  86 NE6       29.79F
IMPERIAL NEB   LGT RAIN  48  45  89 N13       29.88R
MCCOOK NEB     CLOUDY    53  46  77 N16       29.83R
AKRON CO       CLOUDY    43  42  97 N21       29.91S
BURLINGTON CO  LGT RAIN  45  41  86 N20       29.82S
LIMON CO       RAIN      38  36  92 N28G39    29.93R FOG
$$

...UNOFFICIAL OBSERVATIONS...

CITY           SKY/WX    TMP DP  RH WIND       PRES   REMARKS
COLBY KS       RAIN      50  50 100 NE5       29.82S
LENORA KS        N/A     49  32  52 MISG        N/A
NORTON KS      CLEAR     50  45  81 NE3       29.79F
TRIBUNE KS     PTCLDY    45  45 100 W9        29.82R
YUMA CO          N/A     45  42  91 N16G24      N/A
$$


USA.gov is the U.S. government's official web portal to all federal, state and local government web resources and services.